Chillicothe, MO

9:39 PM CDT on October 14, 2019 (GMT -0500)
Chillicothe

Weather History for KCDJ - August, 2019

Change the Weather History Date:

Monday, August 26, 2019

  Actual Average (KIRK) Record (KIRK)
Temperature  
Mean Temperature 70 °F -  
Max Temperature 75 °F 84 °F 108 °F (1936)
Min Temperature 66 °F 63 °F 48 °F (1962)
Cooling Degree Days 4    
Growing Degree Days 20 (Base 50)    
Moisture  
Dew Point 67 °F    
Average Humidity 94    
Maximum Humidity 97    
Minimum Humidity 85    
Precipitation  
Precipitation 0.09 in - - ()
Sea Level Pressure  
Sea Level Pressure 29.77 in    
Wind  
Wind Speed 3 mph (NW)    
Max Wind Speed 7 mph    
Max Gust Speed -    
Averages and records for this station are not official NWS values.
T = Trace of Precipitation, MM = Missing Value Source: NWS Daily Summary

Daily Weather History Graph

Daily Weather History Graph

Search for Another Location

Airport or City:

Astronomy

Aug. 26, 2019 Rise Set
Actual Time 6:36 AM CDT 7:55 PM CDT
Civil Twilight 6:08 AM CDT 8:23 PM CDT
Nautical Twilight 5:34 AM CDT 8:56 PM CDT
Astronomical Twilight 4:59 AM CDT 9:31 PM CDT
Moon 2:02 AM CDT (8/26) 5:18 PM CDT (8/26)
Length of Visible Light 14h 14m
Length of Day
13h 18m
Waning Crescent, 19% of the Moon is Illuminated
Aug 26
Waning Crescent
Aug 30
New
Sep 5
First Quarter
Sep 13
Full
Sep 21
Last Quarter

Hourly Weather History & Observations

Time (CDT) Temp. Dew Point Humidity Pressure Visibility Wind Dir Wind Speed Gust Speed Precip Events Conditions
12:52 AM 66.9 °F 66.0 °F 97% 29.78 in - North 3.5 mph - N/A   Unknown
1:52 AM 66.9 °F 66.0 °F 97% 29.77 in - North 3.5 mph - N/A   Unknown
2:52 AM 66.9 °F 66.0 °F 97% 29.75 in - Calm Calm - N/A   Unknown
3:52 AM 66.9 °F 66.0 °F 97% 29.77 in - WNW 3.5 mph - N/A   Unknown
4:52 AM 66.9 °F 66.0 °F 97% 29.75 in - WNW 3.5 mph - N/A   Unknown
7:52 AM 66.9 °F 66.0 °F 97% 29.79 in - NW 3.5 mph - N/A   Unknown
9:52 AM 71.1 °F 66.9 °F 87% 29.76 in - Calm Calm - N/A   Unknown
10:52 AM 70.0 °F 66.9 °F 90% 29.82 in - Variable 3.5 mph - N/A   Unknown
11:52 AM 68.0 °F 66.9 °F 96% 29.78 in - ESE 6.9 mph - 0.04 in   Unknown
12:52 PM 68.0 °F 66.9 °F 96% 29.68 in - SE 4.6 mph - 0.05 in   Unknown
1:52 PM 70.0 °F 66.9 °F 90% 29.71 in - WSW 3.5 mph - N/A   Unknown
2:52 PM 70.0 °F 66.9 °F 90% 29.74 in - WNW 4.6 mph - N/A   Unknown
5:52 PM 73.9 °F 69.1 °F 85% 29.76 in - Variable 4.6 mph - N/A   Unknown
6:52 PM 73.9 °F 69.1 °F 85% 29.77 in - Calm Calm - N/A   Unknown
7:52 PM 71.1 °F 69.1 °F 93% 29.78 in - Calm Calm - N/A   Unknown
8:52 PM 70.0 °F 69.1 °F 97% 29.81 in - Calm Calm - N/A   Unknown
9:52 PM 69.1 °F 68.0 °F 96% 29.82 in - Calm Calm - N/A   Unknown
10:52 PM 68.0 °F 66.9 °F 96% 29.82 in - Calm Calm - N/A   Unknown
11:52 PM 66.9 °F 66.0 °F 97% 29.85 in - Calm Calm - N/A   Unknown